Location: Boiro
(42.6475°N, 8.8834°W)
Time: 17:20:22
(UTC+01:00)

Tiros 1 despin weight - Pass Details

Date: 08 December 2021
Orbit: 592 x 641 km, 48.2° (Epoch: 20 January)

Event Time Altitude Azimuth Distance (km) Brightness Sun altitude
Rises 14:00:26 0° 254° (WSW) 2,846 ? 24.1°
Reaches altitude 10° 14:02:45 10° 258° (WSW) 1,938 ? 24.1°
Maximum altitude 14:07:09 63° 340° (NNW) 666 ? 23.9°
Drops below altitude 10° 14:11:32 10° 62° (ENE) 1,925 ? 23.8°
Sets 14:13:50 0° 66° (ENE) 2,826 ? 23.7°
